Meteo Giornale » Osservazioni meteo Italia » Rimini

ore: 13:45 - Osservazioni Meteo Rimini
Lat. 44° 2' N Lon. 12° 37' E Alt. 12 metri s.l.m.

sereno Europe/Rome

20 °C

Sereno

Temp. 24 Ore

10 °C

20 °C

Nord/Nord-Est

9.3 Km/h

Dew point 14 °C

Umidità 68 %

Visibilità  10 Km

Il sole sorge alle ore 06:51

Il sole tramonta alle ore 19:35

Data e Ora Cielo e Fenomeni T °C DP °C Um. % Pres. hPa Vis. km Vento km/h
Oggi h: 13:45 sereno Sereno 20 14 68 1026 10 N/NE 9.3
Oggi h: 13:15 sereno Sereno 19 12 63 1026 10 N 13
Oggi h: 12:45 sereno Sereno 19 12 63 1026 10 N 13
Oggi h: 12:15 sereno Sereno 17 11 67 1026 10 N 14.8
Oggi h: 11:45 sereno Sereno 17 11 67 1026 10 N 14.8
Oggi h: 11:15 sereno Sereno 17 11 67 1026 10 N 11.1
Oggi h: 10:45 sereno Sereno 16 11 72 1025 10 N/NO 7.4
Oggi h: 10:15 sereno Sereno 15 10 72 1025 10 O/NO 9.3
Oggi h: 09:45 sereno Sereno 14 11 82 1025 10 O 7.4
Oggi h: 09:15 sereno Sereno 13 11 87 1025 10 N 0
Oggi h: 08:45 sereno Sereno 12 11 93 1025 10 N 3.7
Oggi h: 08:15 sereno Sereno 11 10 93 1025 10 N 1.8
Oggi h: 07:45 sereno Sereno 10 9 93 1024 10 N 3.7
Oggi h: 07:15 sereno Sereno 10 9 93 1022 10 N 1.8
Oggi h: 06:15 sereno Sereno 11 9 87 1023 10 N 3.7
Oggi h: 05:45 sereno Sereno 11 9 87 1023 10 N 0
Oggi h: 05:15 sereno Sereno 11 9 87 1023 10 N 0
Oggi h: 04:45 sereno Sereno 11 9 87 1023 10 N 0
Oggi h: 04:15 sereno Sereno 11 9 87 1023 10 N 5.5
Oggi h: 03:45 sereno Sereno 10 9 93 1023 10 SO 7.4
Oggi h: 03:15 sereno Sereno 10 9 93 1023 10 SO 7.4
Oggi h: 02:45 sereno Sereno 10 9 93 1023 10 N 1.8
Oggi h: 02:15 sereno Sereno 10 10 100 1023 10 N 1.8
Oggi h: 01:45 sereno Sereno 10 10 100 1023 10 N 3.7
Oggi h: 01:15 sereno Sereno 11 10 93 1023 10 N 3.7
Oggi h: 00:45 sereno Sereno 11 10 93 1023 10 N 3.7
Oggi h: 00:15 sereno Sereno 10 10 100 1023 10 N 3.7
Ieri h: 23:45 sereno Sereno 11 11 100 1023 10 N 3.7
Ieri h: 23:15 sereno Sereno 11 11 100 1023 10 N 3.7
Ieri h: 22:45 sereno Sereno 11 11 100 1023 10 N 1.8
Ieri h: 22:15 sereno Sereno 12 11 93 1023 10 N 3.7
Ieri h: 21:45 sereno Sereno 13 12 93 1022 10 N 5.5
Ieri h: 21:15 sereno Sereno 14 12 87 1022 10 N 5.5
Ieri h: 20:45 sereno Sereno 15 12 82 1022 10 SO 7.4
Ieri h: 20:15 sereno Sereno 16 12 77 1022 10 N 0
Ieri h: 19:45 sereno Sereno 17 11 67 1022 10 N 5.5
Ieri h: 19:15 sereno Sereno 17 11 67 1022 10 N 3.7
Ieri h: 18:45 sereno Sereno 18 12 67 1022 10 N 1.8
Ieri h: 18:15 sereno Sereno 17 11 67 1022 10 N 3.7
Ieri h: 17:45 sereno Sereno 18 12 67 1022 10 N 3.7
Ieri h: 17:15 sereno Sereno 18 12 67 1022 10 N 9.3
Ieri h: 16:45 sereno Sereno 19 12 63 1022 10 N 11.1
Ieri h: 16:15 sereno Sereno 18 11 63 1022 10 N 13
Ieri h: 15:45 sereno Sereno 18 11 63 1022 10 N 13
Ieri h: 15:15 sereno Sereno 19 12 63 1023 10 N 13
Ieri h: 14:45 sereno Sereno 18 10 59 1023 10 NO 22.2